Location: Feigenhofen
(48.4939°N, 10.7793°E)
Time: 16:43:28
(UTC+00:00)

Cosmos 1544 Rocket - Pass Details

Date: 26 May 2022
Orbit: 603 x 631 km, 82.5° (Epoch: 29 June)

Event Time Altitude Azimuth Distance (km) Brightness Sun altitude
Rises 01:03:39 0° 350° (N) 2,921 7.9 -16.2°
Reaches altitude 10° 01:05:54 10° 350° (N) 2,005 7.0 -16.0°
Maximum altitude 01:10:21 88° 266° (W) 627 3.5 -15.7°
Enters shadow 01:13:15 21° 173° (S) 1,387 4.9 -15.5°
